Location: Unspecified
(40.7945°N, 111.1337°W)
Time: 22:29:56
(UTC-06:00)

Hubble Space Telescope - Pass Details

Date: 31 March 2019
Orbit: 537 x 540 km, 28.5° (Epoch: 19 April)

Event Time Altitude Azimuth Distance (km) Brightness Sun altitude
Rises 20:58:56 0° 245° (WSW) 2,668 5.1 -13.9°
Reaches altitude 10° 21:02:36 10° 211° (SSW) 1,777 3.6 -14.5°
Maximum altitude 21:04:00 12° 192° (SSW) 1,683 3.2 -14.8°
Drops below altitude 10° 21:05:23 10° 172° (S) 1,777 3.1 -15.0°
Enters shadow 21:05:42 - 168° (SSE) 1,821 3.2 -15.1°
